Wind_Speed
14 15 17 15 12 11 11 15 13 14 15 13 11 14 13 13 14 10 12 22 25 22 22 21 20 19 19 19 18 17 17 17 17 17 17 18 18 17 16 15 13 14 13
11 8 8 16 16 15 12 13 12 17 21 17 19 15 16 17 15 13 10 17 28 25 20 19 20 20 21 21 21 20 21 20 21 20 20 20 19 19 17 17 15 14 14
11 10 8 10 13 12 9 9 8 8 13 12 13 13 15 16 15 15 13 14 27 26 23 22 20 18 21 22 23 24 24 22 22 24 23 22 22 21 20 17 18 15 15
9 10 10 11 12 11 13 14 12 15 12 12 14 18 17 15 16 17 12 12 23 28 26 23 22 21 20 22 23 24 26 26 25 25 26 26 25 24 22 20 19 18 16
6 5 5 5 7 10 11 9 10 10 9 11 11 13 13 17 15 13 12 18 13 20 22 22 22 22 25 26 24 27 27 27 27 28 28 27 26 26 24 22 21 20 19
5 5 6 8 10 10 10 10 11 13 12 12 12 15 15 14 6 6 14 15 20 17 19 13 16 15 13 14 28 27 26 28 27 28 29 30 29 28 27 25 24 22 21
9 7 6 5 6 9 9 6 8 9 11 11 12 8 7 4 1 3 6 7 5 9 16 20 13 13 8 16 20 25 26 26 27 28 30 30 32 32 30 28 28 26 23
10 7 9 8 8 10 8 8 8 7 7 6 4 2 2 0 1 4 1 9 6 6 6 4 12 7 9 3 3 22 29 27 29 29 30 32 34 33 33 33 32 30 27
7 6 5 6 5 6 6 6 7 8 6 4 2 1 2 1 4 2 3 7 6 6 9 6 5 1 3 5 6 18 29 32 30 29 31 31 33 33 35 33 34 33 31
3 2 4 3 1 2 2 1 4 4 4 1 2 1 2 1 1 4 2 2 3 11 13 15 14 14 9 4 8 13 27 33 28 32 30 31 31 33 35 36 35 34 31
6 3 2 2 2 4 4 3 4 4 5 4 4 2 2 1 1 1 3 4 10 12 14 14 13 15 16 19 21 17 22 31 28 26 33 31 32 32 34 32 32 31 29
7 6 5 4 3 3 3 4 3 2 3 3 4 5 6 4 4 2 2 4 5 7 14 10 12 11 7 18 19 11 13 22 27 23 27 34 35 33 33 30 32 32 29
9 7 6 4 1 2 2 2 1 6 8 7 5 5 5 6 5 6 1 3 2 6 7 16 2 8 5 8 15 9 7 12 12 13 17 29 35 34 30 32 31 29 27
11 8 5 1 1 2 2 4 6 6 5 5 6 6 4 4 4 6 4 1 2 4 6 6 11 6 6 5 5 4 4 5 7 11 15 20 25 29 29 30 27 27 28
13 10 6 4 3 3 3 5 4 4 3 3 5 5 4 5 5 3 4 4 2 1 2 7 3 7 3 5 6 8 9 10 14 13 10 9 15 20 23 22 23 24 25
13 9 7 7 5 6 6 3 5 5 4 6 5 6 7 5 6 8 9 7 5 3 1 1 2 6 6 7 8 10 11 10 10 14 12 12 13 13 15 16 17 17 17
11 10 10 8 8 7 4 5 7 6 4 4 5 4 4 3 5 7 9 9 11 6 2 1 5 6 7 3 9 10 9 8 10 11 14 14 16 13 11 11 13 14 15
11 11 11 8 8 3 4 5 5 4 8 6 4 4 5 5 7 8 8 8 10 10 5 3 5 9 7 11 4 10 3 2 6 10 11 9 10 12 10 8 9 11 13
10 9 9 8 8 4 4 4 5 4 5 7 5 4 3 3 6 8 7 5 7 8 7 4 4 8 5 10 9 7 4 2 5 6 3 13 12 13 9 9 9 9 11
10 10 8 7 6 4 5 6 4 3 3 4 4 3 3 3 4 5 6 7 7 6 6 5 3 5 6 9 8 11 10 9 9 6 4 3 11 12 11 9 9 8 7
9 8 6 7 5 4 6 9 5 1 2 2 2 3 5 5 3 1 3 6 6 5 5 5 3 3 3 5 9 10 9 8 2 10 8 2 1 5 8 12 11 8 6
10 9 8 7 6 4 4 5 5 4 3 1 2 1 3 3 1 1 3 6 6 6 8 4 2 2 3 3 5 8 10 7 5 6 8 3 0 2 3 3 2 2 2
14 11 10 8 7 7 7 6 4 4 6 4 2 3 5 3 2 3 4 7 4 2 4 6 6 4 4 5 8 9 8 7 6 10 7 2 5 3 4 4 4 4 5
13 11 10 9 8 7 7 7 6 5 6 5 5 8 9 9 4 3 4 8 3 4 4 5 7 9 8 8 7 7 8 9 7 2 3 2 2 5 6 5 6 8 8
12 13 12 10 9 7 8 8 8 7 7 5 3 7 4 10 6 3 6 9 10 7 5 6 5 6 9 9 9 7 4 5 3 3 4 2 2 1 6 6 7 7 7
13 13 12 12 11 10 8 8 8 8 8 6 5 4 4 5 7 5 8 10 12 10 9 11 10 12 13 14 10 10 7 2 2 3 3 5 2 3 2 4 4 9 9
Wind_Direction
211 224 216 221 220 218 231 235 239 250 249 246 251 256 262 265 259 264 256 233 218 224 211 212 208 205 203 198 195 195 197 197 197 196 195 191 188 185 182 180 180 170 164
190 208 214 220 227 230 242 258 253 253 256 263 255 249 253 259 272 258 252 241 223 221 221 224 221 217 208 208 204 208 206 203 204 205 206 209 208 200 198 198 200 196 189
213 208 211 223 203 219 231 244 254 240 235 249 250 253 260 276 273 276 266 238 223 222 225 224 231 229 224 215 212 210 216 213 213 211 212 216 220 219 215 211 211 206 203
213 213 221 216 227 219 220 230 247 240 250 259 264 264 278 276 271 265 268 246 229 229 229 234 241 243 238 233 228 222 223 220 218 220 221 220 221 226 225 220 212 206 212
185 205 226 235 236 233 229 240 247 260 275 290 284 280 282 279 279 253 238 241 216 235 240 238 242 248 253 247 239 228 227 228 225 224 225 223 225 226 228 227 223 217 212
226 227 262 281 244 266 276 265 269 280 278 292 290 289 280 290 294 245 230 225 229 246 236 238 221 212 240 254 250 240 233 231 231 230 229 227 227 230 231 231 231 227 224
221 243 257 273 236 258 277 271 281 296 283 289 277 282 271 289 253 201 227 204 225 229 234 242 227 209 251 268 305 241 245 239 231 231 234 231 230 231 234 235 235 234 232
227 216 235 259 257 264 253 258 261 261 267 260 279 306 333 313 264 158 265 210 204 215 226 239 219 224 275 229 163 247 248 239 239 235 234 234 233 234 234 234 236 237 236
205 231 230 266 238 251 257 256 263 246 236 230 242 263 15 308 318 296 92 169 197 270 262 249 200 148 60 84 289 262 264 247 241 236 234 236 235 236 237 239 238 236 236
132 152 178 127 27 12 313 240 273 230 175 183 218 90 3 183 141 331 25 70 289 292 284 279 264 240 252 224 214 222 222 233 236 235 234 235 236 237 236 233 241 241 240
147 171 172 130 64 63 76 70 96 68 88 89 67 55 76 5 195 182 299 320 334 346 347 300 268 256 243 251 245 239 244 223 232 235 228 232 238 238 239 237 237 239 238
148 132 108 107 101 77 57 55 62 75 93 114 66 66 65 33 341 263 246 291 294 331 346 353 251 226 251 233 233 249 250 222 226 234 235 234 237 239 244 245 243 238 237
165 149 140 135 79 23 17 19 40 115 85 101 101 96 87 79 32 23 337 303 292 328 6 28 161 214 236 236 218 233 222 228 264 260 252 237 237 239 244 250 250 247 240
173 172 175 163 39 46 57 97 99 92 79 95 100 100 101 76 31 24 13 70 8 349 19 47 90 126 202 230 202 194 215 242 239 253 259 251 240 244 246 249 252 256 254
170 168 157 139 113 57 97 116 81 53 40 67 64 60 51 52 55 57 34 35 160 98 309 28 60 46 136 205 222 235 241 246 245 232 234 267 259 249 246 248 252 256 256
168 171 161 150 137 109 82 85 90 53 44 80 79 59 59 67 68 61 70 88 94 148 157 233 342 351 321 261 254 267 271 271 270 248 259 275 269 251 250 252 255 256 258
179 173 163 159 156 144 100 107 109 85 64 57 83 72 38 38 48 50 52 61 64 76 136 309 299 5 11 292 239 249 257 276 281 271 275 268 256 239 240 252 261 264 261
168 168 167 169 166 147 108 119 112 100 83 118 82 83 77 57 43 34 28 34 37 41 49 4 319 352 330 355 294 221 251 320 286 242 264 296 232 216 238 252 267 271 263
172 174 174 177 171 170 140 131 106 111 102 86 84 73 61 48 38 18 15 25 12 17 27 26 352 23 32 16 43 101 82 54 49 45 321 243 225 222 232 239 258 265 260
183 184 186 186 189 192 193 173 170 166 115 75 95 53 56 7 357 27 37 32 20 15 19 23 29 35 22 7 24 18 358 24 40 51 30 5 225 229 247 246 254 260 254
183 184 182 184 198 223 243 200 192 224 188 195 167 23 41 24 276 137 1 355 349 352 7 28 62 44 32 21 16 2 352 350 48 35 20 22 135 219 237 248 248 226 234
194 199 203 203 210 208 175 209 270 290 282 185 174 219 43 328 97 203 308 332 317 322 317 327 5 14 20 12 7 3 350 356 329 344 350 303 152 171 210 200 184 169 141
193 206 202 203 210 206 213 238 257 290 304 285 243 276 278 305 222 239 300 318 305 265 305 295 293 285 295 324 324 328 331 321 291 316 308 255 210 206 167 159 149 144 123
198 204 212 211 224 225 218 227 239 270 296 285 304 290 267 253 238 263 330 0 350 319 329 322 291 291 282 305 312 315 314 313 313 35 339 256 218 232 203 176 174 163 147
204 209 221 215 219 231 231 229 243 264 281 278 333 6 246 248 239 264 321 342 338 300 286 291 304 292 281 286 294 304 324 343 319 302 347 338 35 271 218 210 197 189 177
214 219 221 227 226 229 230 241 249 255 265 262 253 302 325 277 230 263 313 326 327 331 314 295 287 275 282 288 280 268 268 290 306 305 326 346 352 4 252 220 225 225 221
Height
828 829 830 832 832 832 832 832 832 833 833 833 834 833 832 832 832 832 832 834 836 836 837 839 840 839 841 842 843 845 847 850 853 855 858 859 859 860 861 863 864 864 864
827 827 827 829 830 830 831 831 830 830 831 831 830 830 830 829 829 830 830 831 832 834 835 836 836 836 839 841 842 843 844 846 850 853 856 859 860 860 862 863 865 864 864
825 825 826 827 828 829 829 830 829 828 828 828 827 827 826 826 826 827 829 830 829 830 831 833 834 834 835 837 839 841 843 844 846 850 853 856 859 861 861 861 863 864 864
825 824 824 825 826 827 827 827 827 827 827 826 824 823 823 823 824 825 826 826 826 827 829 830 834 836 835 834 834 836 838 841 844 845 848 851 854 857 859 861 861 862 863
822 822 823 824 825 825 824 824 824 824 823 823 821 820 820 821 822 822 822 821 821 822 825 828 829 828 833 832 832 832 834 836 838 841 844 847 850 852 855 857 858 859 860
820 821 822 821 822 822 822 821 821 822 822 821 820 819 819 818 817 817 818 818 817 817 818 820 820 821 822 825 828 831 831 833 834 837 840 844 846 848 850 853 855 856 857
819 819 819 820 820 820 820 820 819 821 821 821 819 818 817 815 816 817 815 815 816 815 816 817 817 817 817 819 806 827 832 830 830 833 838 841 843 845 847 849 851 852 854
818 818 817 818 819 820 819 819 820 820 820 819 818 817 818 818 816 816 815 815 815 814 814 813 812 813 813 813 811 825 828 828 828 830 831 835 838 840 843 845 847 848 850
818 818 817 817 817 818 818 818 818 818 818 818 818 817 819 822 817 814 815 815 815 813 813 811 812 810 807 802 808 813 818 820 823 826 826 829 833 836 838 841 843 844 846
816 816 815 817 816 817 816 817 816 815 815 817 817 816 817 817 819 818 813 814 814 812 811 808 808 808 805 800 802 804 808 811 815 820 821 824 827 830 833 834 837 837 840
814 814 815 815 816 816 817 816 816 815 815 816 816 816 816 815 816 817 816 814 812 809 808 805 805 806 806 804 802 804 806 807 810 813 815 818 822 824 827 830 833 834 835
813 814 814 814 815 816 816 816 816 815 815 815 815 817 817 817 817 816 815 812 812 808 806 804 801 804 805 804 804 804 803 805 806 808 810 812 816 819 821 823 826 829 831
812 813 813 814 814 815 816 815 815 815 814 815 815 816 816 817 817 815 815 812 812 809 806 804 800 802 804 804 804 804 803 805 805 805 805 807 810 813 815 818 821 823 824
810 811 811 811 812 813 814 815 816 815 815 815 815 815 815 816 816 815 814 813 814 811 809 808 806 807 807 806 806 806 804 803 804 805 806 805 805 807 809 813 815 818 818
808 809 809 809 811 812 813 815 814 814 814 814 814 815 815 816 816 815 813 812 812 816 814 810 809 809 809 808 807 806 805 803 803 804 804 803 804 804 805 807 809 811 812
807 808 808 808 809 810 812 813 812 812 812 813 814 815 815 815 816 815 814 812 811 811 814 812 811 809 808 806 805 804 803 802 801 801 800 801 801 800 801 802 804 805 807
807 808 809 810 810 810 810 811 811 810 810 811 813 813 815 815 815 814 814 813 811 810 812 811 812 810 808 806 804 804 803 801 800 800 800 797 796 798 799 800 801 801 802
809 810 810 811 811 810 809 810 811 811 809 810 811 812 813 814 814 814 812 812 811 810 810 809 809 808 806 805 801 801 801 801 797 796 796 794 793 795 797 798 798 798 798
811 812 811 811 812 812 812 812 812 812 811 810 810 810 810 811 812 812 812 810 811 811 811 810 808 806 805 804 801 800 799 799 796 794 792 791 792 794 796 797 796 795 796
812 812 814 814 814 813 813 812 813 813 812 810 810 809 808 808 808 809 811 810 809 809 810 809 807 807 806 803 802 801 799 798 795 792 791 789 789 793 794 795 795 794 794
813 813 813 814 814 814 814 814 814 813 813 811 810 809 807 806 806 806 808 809 808 808 807 807 805 805 805 804 802 801 800 799 797 794 792 791 789 791 791 792 792 792 793
811 811 811 811 812 813 813 815 814 813 812 811 810 809 807 805 806 805 806 806 806 805 806 805 804 804 803 802 802 801 801 799 798 796 794 793 792 790 791 791 791 792 791
803 806 808 809 810 810 811 813 813 813 812 810 809 808 808 805 804 805 805 804 802 803 802 801 802 803 803 802 801 800 800 800 797 795 793 792 791 791 790 790 790 791 791
800 804 807 807 808 807 809 810 810 811 811 810 808 806 804 804 803 803 802 800 799 799 800 799 799 799 800 800 799 799 798 797 795 794 792 790 790 790 790 790 791 792 792
799 800 804 805 805 807 807 806 807 808 808 807 807 805 802 803 802 801 800 797 796 796 797 797 797 797 797 797 797 797 796 795 794 794 793 791 789 789 789 789 791 792 791
797 800 800 800 802 803 804 805 803 803 803 803 804 803 802 801 801 799 798 796 795 794 793 793 793 792 792 792 793 793 794 794 794 793 792 791 789 789 788 788 789 790 790